Theta_e
331 328 327 321 308 306 296 300 306 306 307 310 314 310 310 314 313 310 334 341 341 341 341 342 345 347 348 348 348 347 347 344 343 342 342 341 341 340 339 338 337 337 337 336 336 335 335 334 334
327 327 324 317 304 299 295 302 303 307 311 312 312 310 309 311 323 327 331 341 342 340 340 340 342 346 347 347 347 347 347 345 342 341 341 339 338 339 338 337 335 335 335 340 338 336 334 333 333
325 327 316 311 305 299 295 302 305 310 312 311 310 313 312 313 323 328 337 340 342 339 339 340 342 345 346 346 347 346 346 345 342 340 340 337 337 337 337 338 335 336 334 336 339 336 333 332 332
320 324 316 304 302 304 301 303 307 309 310 311 311 308 318 324 325 334 339 340 338 336 338 339 343 344 345 344 345 345 345 344 344 342 339 337 339 338 338 337 335 335 334 333 335 335 333 332 332
321 318 309 304 303 304 307 307 308 307 307 307 307 305 315 324 331 336 339 339 337 337 337 339 342 343 344 344 344 343 342 345 344 343 342 340 338 338 337 337 337 335 335 332 332 335 334 333 332
313 315 305 301 303 305 306 307 308 307 309 307 305 309 315 326 329 333 339 338 340 338 338 337 336 338 341 342 342 342 340 344 345 343 342 341 340 339 337 337 336 334 333 331 329 334 332 331 332
311 309 304 306 304 304 306 309 307 308 309 309 310 304 316 322 330 333 335 339 338 340 338 338 337 336 334 337 337 339 338 340 342 342 342 340 338 337 337 337 336 335 333 333 333 334 332 331 330
314 310 305 305 304 303 308 309 310 310 311 315 316 305 308 322 330 332 332 334 337 338 338 337 336 335 334 334 332 333 335 335 337 338 336 334 332 333 332 331 334 336 336 334 333 332 333 332 330
317 305 302 305 306 306 310 308 312 313 312 313 316 317 321 328 331 329 328 329 331 335 336 337 336 335 333 332 331 328 330 330 330 329 329 327 330 330 329 328 331 335 335 335 335 334 334 333 330
307 302 304 310 310 308 309 309 310 309 311 311 316 320 326 329 328 325 326 325 328 327 332 335 336 335 334 335 331 330 331 330 329 329 327 327 327 327 330 325 327 330 330 332 334 335 333 329 325
304 300 305 310 312 313 310 309 312 308 308 312 314 318 323 326 326 325 325 327 327 328 332 334 334 334 333 332 332 330 330 328 328 328 328 329 328 326 325 325 324 325 321 326 327 328 328 326 324
301 305 306 311 311 311 310 311 307 309 308 314 316 322 323 323 324 325 325 327 328 329 331 332 333 332 333 333 332 332 331 330 328 329 329 327 326 325 325 324 326 325 325 324 324 324 326 326 324
302 303 305 309 309 309 311 309 307 308 312 315 316 322 321 322 323 324 325 325 327 327 330 332 333 332 332 332 332 331 331 330 330 330 330 329 327 326 326 325 324 324 325 325 324 324 324 324 323
305 303 304 307 307 308 306 306 307 309 313 313 316 314 319 320 321 322 323 324 325 326 327 330 333 333 332 330 331 331 331 331 330 330 330 330 329 327 326 325 325 324 324 324 323 323 322 322 322
306 301 302 303 304 304 305 301 303 308 308 311 312 312 316 318 320 320 323 324 325 327 328 329 330 333 332 331 330 331 332 331 330 331 331 331 331 329 327 326 325 325 325 324 323 322 321 320 321
300 299 294 301 302 304 301 290 301 308 306 305 306 309 313 316 318 320 322 324 325 326 327 329 332 331 332 332 331 331 331 331 331 331 331 331 331 331 329 327 326 327 326 325 323 322 321 320 319
297 288 292 296 303 301 300 292 299 304 301 299 300 303 305 310 314 315 317 320 322 324 325 326 328 328 330 331 332 331 330 330 331 331 331 331 331 331 330 328 328 328 326 325 325 323 322 320 320
288 288 290 290 298 299 297 297 300 303 302 301 302 303 304 304 305 307 309 311 313 313 315 315 321 326 327 328 330 330 331 330 330 331 331 331 331 331 330 329 328 328 328 327 327 326 325 324 324
293 290 289 292 298 295 294 295 297 300 300 299 301 302 303 304 307 308 309 309 310 311 312 312 313 315 321 323 323 325 326 327 329 330 330 330 331 331 329 328 329 330 327 327 326 325 323 323 323
294 290 288 292 297 294 292 291 294 296 297 298 298 299 300 300 302 303 304 306 308 309 310 311 313 315 317 320 322 324 325 326 328 329 328 329 329 330 330 330 329 328 326 326 325 324 322 321 322
293 290 289 289 294 295 291 288 292 295 297 299 300 300 300 299 299 300 302 303 305 306 308 311 312 313 314 319 321 322 322 324 323 324 326 328 328 327 327 330 328 327 326 325 324 324 322 320 319
290 295 294 293 289 281 289 278 286 290 292 295 295 296 296 297 299 300 301 301 303 305 307 308 310 311 313 314 317 317 318 317 322 324 325 327 329 327 328 327 328 326 326 325 324 324 322 321 318
291 295 293 291 287 284 283 280 284 288 287 292 293 295 297 298 299 300 300 302 302 304 304 306 308 308 310 311 312 314 316 318 320 321 321 323 325 326 326 326 326 325 325 325 324 322 322 322 320
296 292 291 290 287 276 284 282 281 285 288 290 295 295 298 296 298 300 301 302 303 305 306 307 308 311 314 311 312 313 315 316 316 318 318 319 320 322 324 325 325 324 324 324 324 323 322 321 321
294 288 279 277 278 275 284 281 284 289 291 292 294 295 296 297 298 299 299 301 303 302 302 302 303 303 305 305 306 309 311 313 316 311 309 309 310 311 307 308 309 315 318 320 321 322 322 322 321
290 289 281 272 275 277 284 278 284 292 295 295 296 295 297 296 299 299 300 300 300 300 300 300 299 299 301 302 302 303 304 304 304 305 304 304 305 306 305 305 306 307 308 308 310 316 317 319 319
289 285 290 282 277 275 280 285 290 292 293 294 293 294 295 298 299 300 299 298 298 297 297 297 298 298 299 300 300 300 300 301 301 302 302 302 302 303 302 303 303 304 305 306 307 307 308 312 313
291 293 283 283 272 272 277 278 281 287 290 293 293 293 295 296 298 301 299 297 297 296 296 297 297 297 297 298 298 298 297 298 299 299 298 298 299 299 300 300 300 301 303 303 304 305 307 306 308
288 287 288 287 282 277 275 277 287 289 291 292 293 295 294 294 296 298 300 298 296 295 295 295 295 296 296 296 297 296 296 296 297 296 296 296 297 298 298 299 299 300 300 301 301 302 302 301 302
291 288 288 280 279 280 280 279 291 291 292 293 293 295 294 295 296 297 299 297 296 295 294 294 294 294 294 295 295 294 295 295 294 294 295 296 296 297 297 297 298 298 298 298 298 297 297 298 298
Wind_Speed
16 14 2 3 2 3 6 2 7 6 4 5 8 7 9 9 6 6 5 17 17 15 12 10 10 8 8 8 14 12 12 11 11 10 11 10 10 11 11 10 11 10 11 12 12 12 12 11 11
10 10 2 4 3 2 4 7 6 7 8 7 5 1 1 6 8 9 6 16 16 13 11 10 10 9 9 10 11 12 11 11 10 9 10 10 10 9 10 8 9 10 7 11 13 12 10 10 9
15 5 3 3 3 5 5 7 10 9 4 1 4 3 5 4 10 9 12 18 14 11 9 12 10 10 11 10 9 8 9 13 11 9 9 9 9 8 8 7 8 8 8 10 10 10 9 8 8
6 2 4 2 7 5 9 9 11 8 4 2 5 9 6 7 7 10 15 16 13 10 12 12 12 12 11 11 10 8 8 9 12 12 9 8 7 8 6 5 6 6 7 8 8 8 7 6 6
5 4 5 3 6 3 6 8 9 6 6 8 2 6 7 4 9 13 15 14 13 8 12 9 10 9 9 9 8 7 6 8 10 11 11 9 7 6 6 6 3 5 5 6 5 7 5 4 4
4 2 5 4 8 3 4 4 7 6 6 5 2 9 6 8 8 9 12 13 12 9 12 10 9 9 9 8 8 7 5 6 9 8 8 9 9 7 7 6 5 3 3 3 2 5 4 3 3
5 5 8 5 8 6 4 1 4 6 6 5 2 5 7 8 8 9 7 16 11 9 7 10 7 7 7 8 8 8 7 6 8 8 8 8 8 8 6 7 7 5 3 3 3 4 3 0 2
3 3 7 4 8 5 7 6 3 4 5 2 6 4 7 9 9 8 7 8 11 11 8 7 7 6 6 5 7 7 6 6 7 7 7 8 7 6 5 4 5 6 6 6 6 6 5 4 3
4 3 5 7 4 7 10 6 4 3 5 2 3 6 10 12 9 5 4 7 7 5 10 9 7 8 7 7 6 6 6 7 7 6 6 5 5 7 8 8 8 9 8 7 7 7 6 6 6
2 3 7 8 1 6 10 8 9 5 7 4 7 5 11 9 9 8 6 7 7 4 3 7 7 7 7 7 7 6 6 5 5 6 6 5 6 5 7 6 10 9 8 8 8 7 8 7 4
4 4 8 7 9 9 9 7 9 5 7 8 10 12 10 9 9 9 8 6 6 7 9 6 7 8 7 5 6 4 3 4 4 7 6 6 5 4 3 3 3 4 6 4 6 5 4 6 5
3 6 4 5 5 6 4 3 2 5 2 6 8 18 13 12 11 11 10 11 10 11 11 9 7 5 7 5 4 5 4 4 4 5 7 4 3 3 3 3 5 5 4 6 5 4 6 7 7
4 3 0 5 4 4 7 4 1 5 8 6 7 12 12 10 11 11 10 9 10 11 12 13 9 6 4 6 5 5 5 5 6 5 6 5 4 4 4 4 4 4 4 5 5 5 4 5 6
6 5 4 3 4 0 2 4 4 5 7 8 6 6 9 10 11 9 9 9 9 9 9 10 13 10 7 6 5 4 5 5 5 5 5 7 5 5 5 4 4 4 4 4 5 5 5 5 5
3 3 5 6 6 2 1 7 8 7 2 5 8 7 7 8 9 9 9 7 8 7 8 9 10 12 11 9 6 5 4 4 5 5 7 7 7 6 5 5 4 5 5 6 5 4 4 4 4
3 2 4 9 10 5 4 4 10 11 9 9 7 7 8 8 7 6 7 9 9 8 9 8 8 9 11 11 9 7 5 4 4 5 5 8 7 7 6 4 5 5 4 4 4 4 4 5 5
5 3 8 1 2 1 7 4 8 4 3 4 6 9 8 8 9 8 7 7 7 8 9 9 9 9 8 8 7 9 8 6 6 4 5 7 7 7 6 5 5 6 4 4 4 4 4 4 4
6 4 5 7 3 2 6 8 8 5 4 5 6 8 8 6 8 5 7 7 7 6 6 6 6 9 9 6 5 4 7 7 7 7 5 6 6 7 6 5 5 5 5 5 6 7 5 5 5
4 5 6 4 4 2 6 9 11 8 7 8 8 9 9 10 8 7 7 7 7 7 7 7 6 5 4 4 4 4 6 4 7 7 7 6 5 7 7 5 5 6 6 7 7 4 5 5 2
2 5 4 4 5 2 7 11 12 11 9 9 11 12 11 8 9 8 8 8 7 4 6 6 7 7 5 4 4 4 4 4 3 4 6 6 6 5 5 7 7 5 4 5 6 4 2 3 3
6 7 5 2 5 8 5 10 16 12 14 16 14 11 8 9 9 7 5 5 2 4 5 6 6 7 7 8 4 3 2 1 1 3 4 7 8 7 6 5 5 4 4 4 4 4 6 6 3
8 8 6 4 4 2 3 7 4 6 8 9 9 7 9 9 3 4 4 5 5 5 5 5 3 3 3 3 5 6 5 4 3 4 4 4 9 8 8 6 6 4 3 5 4 4 5 5 7
0 6 3 0 3 6 3 4 8 1 4 6 6 3 6 5 3 4 6 7 6 7 6 5 4 4 2 2 1 2 3 3 3 2 4 2 2 5 5 4 5 6 6 7 6 4 6 6 7
8 5 4 2 1 4 10 8 5 5 5 4 5 5 5 3 2 5 4 2 4 4 4 5 4 5 3 2 4 4 4 4 2 2 3 2 2 2 3 4 4 3 1 3 4 6 7 8 8
6 7 2 1 2 7 2 7 10 5 3 5 4 2 3 4 4 5 5 5 6 5 5 5 6 6 6 7 7 7 6 6 5 5 4 4 3 4 5 6 6 5 4 5 5 5 6 6 6
13 9 5 6 4 1 4 6 6 2 7 5 5 2 4 5 5 5 6 5 5 6 6 7 6 6 7 6 7 7 8 5 5 6 4 4 4 4 6 6 6 6 6 5 5 3 4 5 6
10 9 2 2 2 2 5 7 9 5 4 5 3 3 4 5 6 6 5 4 4 4 4 4 4 5 5 5 5 6 6 6 5 6 5 4 5 4 6 5 5 6 6 6 6 4 5 5 4
2 5 3 2 3 5 6 6 6 5 7 7 7 7 6 4 4 5 5 3 3 3 3 3 4 4 3 4 4 5 6 6 5 5 5 5 4 5 5 5 5 5 6 6 6 4 5 6 5
5 5 4 4 4 2 3 2 5 8 9 9 6 4 4 3 3 4 5 5 5 4 4 3 3 4 4 4 4 5 4 4 5 5 5 4 3 4 4 5 5 5 5 5 5 6 6 7 7
7 5 9 4 4 4 1 6 2 7 9 7 6 5 2 3 3 3 5 6 5 5 4 4 3 4 3 2 3 4 4 4 4 4 4 3 3 3 3 4 4 4 4 5 5 6 6 7 7
Wind_Direction
310 312 288 285 267 185 128 69 83 86 123 59 44 20 67 41 14 106 148 107 118 121 128 134 131 132 112 129 133 129 118 111 106 104 103 96 98 98 96 91 84 82 96 101 88 80 78 73 72
300 291 241 270 233 226 90 124 139 82 76 86 115 183 98 81 73 122 100 120 118 129 145 136 134 131 119 120 116 121 120 112 107 108 108 105 104 102 105 98 91 84 61 79 93 85 79 75 71
292 266 265 233 293 14 99 150 94 88 98 143 117 27 18 74 106 149 122 125 131 133 143 128 139 137 130 121 123 127 146 135 127 124 122 123 116 110 107 97 103 88 89 66 81 84 77 73 72
315 265 256 239 74 5 99 94 109 131 113 28 328 93 80 354 139 116 131 127 140 146 125 141 150 150 147 140 133 127 152 146 143 139 138 138 119 124 110 100 119 109 98 85 83 88 89 82 75
297 256 266 235 78 94 26 104 129 166 152 142 249 94 96 52 90 128 134 139 146 161 122 139 144 147 150 152 142 134 123 165 156 150 150 138 126 127 115 125 145 101 113 98 81 85 75 62 58
290 233 281 208 121 95 94 120 138 120 111 102 189 111 81 125 128 144 148 129 149 128 130 138 153 156 150 146 147 150 126 162 156 154 148 147 149 151 148 154 145 119 138 152 122 117 86 41 1
261 296 277 304 116 149 146 287 172 146 161 118 350 97 126 154 134 146 171 142 151 124 141 147 164 166 163 166 165 171 159 126 150 153 159 164 167 165 181 188 171 158 202 215 236 149 138 311 350
304 290 278 287 138 156 130 163 36 343 73 94 3 139 167 144 136 143 167 131 144 147 152 158 158 161 170 172 179 179 177 156 145 167 190 170 174 184 183 193 189 188 216 212 229 240 185 231 256
296 281 268 243 224 131 142 157 169 29 115 82 64 53 99 121 111 108 155 147 155 134 160 163 176 168 173 171 178 191 196 186 178 170 174 164 196 190 194 200 213 202 209 228 236 211 202 228 243
239 241 261 0 174 130 160 183 153 161 151 130 103 78 106 118 134 152 181 186 137 158 246 167 169 194 175 181 155 181 194 198 200 201 178 201 215 218 192 185 191 195 210 230 226 220 219 228 247
221 239 350 48 15 8 157 202 156 204 180 179 173 160 151 155 169 171 188 209 154 175 201 207 192 191 175 196 151 174 187 192 204 203 205 202 219 207 184 145 179 196 220 222 224 224 217 215 222
278 257 11 5 22 356 355 205 171 210 84 49 79 157 157 172 185 185 188 189 184 189 193 203 240 200 175 175 179 176 183 182 201 201 201 204 213 230 200 189 200 189 198 204 226 206 215 226 225
252 260 140 68 359 337 4 302 157 257 134 90 85 144 163 180 187 190 189 189 180 189 188 189 197 225 224 187 184 199 192 182 191 202 195 190 201 212 214 217 206 204 203 192 214 224 234 230 234
349 256 202 133 235 205 296 265 79 245 273 134 146 191 180 187 190 184 184 182 182 180 188 181 184 190 194 221 226 206 197 193 191 200 197 194 196 202 210 215 216 217 213 218 211 216 231 236 230
326 285 225 222 231 180 24 280 236 247 11 180 183 237 201 193 185 186 183 192 177 183 184 187 182 183 188 199 225 246 262 203 193 190 204 200 194 210 209 209 220 217 216 220 223 231 231 243 257
225 281 222 201 182 157 141 254 231 209 216 201 235 222 207 213 214 208 201 182 191 184 186 190 187 185 187 192 196 208 237 275 245 203 194 205 202 192 206 217 220 219 224 216 210 218 238 235 227
237 243 214 240 109 113 181 251 240 50 327 287 258 252 241 220 212 214 213 213 215 191 185 187 187 189 194 195 185 191 199 213 252 264 206 204 204 202 196 204 215 218 216 222 214 225 208 229 241
200 224 266 209 103 251 252 253 280 171 213 249 282 294 302 279 256 247 241 228 218 235 226 225 201 189 187 188 197 196 185 199 209 232 259 220 204 200 201 206 213 216 222 233 242 247 239 229 236
359 294 234 151 78 13 267 264 266 272 268 258 244 238 244 251 272 264 253 233 224 208 212 224 220 213 164 172 178 195 215 196 195 205 216 249 244 201 196 201 209 221 234 237 240 249 243 257 239
173 273 272 67 110 84 277 272 272 260 248 235 245 250 255 264 254 257 258 241 206 213 224 225 213 204 205 184 182 179 178 214 198 183 206 216 254 276 199 199 230 237 234 229 227 219 255 261 176
193 236 240 223 162 209 257 266 243 259 240 246 248 247 253 266 280 285 310 318 308 235 254 234 239 227 218 193 168 180 211 228 179 198 199 198 211 232 257 259 218 204 222 244 211 203 219 254 240
234 212 249 348 43 254 113 284 307 237 233 218 234 235 237 239 312 337 291 287 316 341 2 359 284 268 267 218 176 173 177 200 203 207 224 196 190 200 216 229 221 221 207 231 216 201 214 213 245
272 48 71 313 273 311 237 260 261 238 235 234 221 190 99 66 15 335 14 31 17 3 343 333 325 313 305 332 242 189 204 201 212 173 132 115 181 191 207 211 200 206 210 224 219 200 213 218 235
111 113 87 40 283 277 217 205 257 205 215 86 94 122 143 149 83 89 59 68 70 30 6 9 42 54 4 220 256 233 220 215 233 156 133 191 228 199 200 210 247 274 279 239 214 218 219 223 229
171 154 91 340 205 229 357 211 248 294 132 143 135 60 40 41 126 104 125 88 78 53 35 39 54 47 42 51 53 53 52 51 46 50 44 46 32 36 28 28 20 358 323 292 270 235 231 234 235
192 184 155 208 205 293 8 237 262 87 66 113 99 354 338 310 115 113 92 97 85 60 39 55 45 40 43 52 53 46 44 52 56 52 45 41 53 40 27 12 358 344 338 330 326 304 286 271 250
197 225 19 11 44 16 212 253 308 198 163 128 123 43 25 34 114 118 107 104 98 92 68 54 83 65 44 48 67 64 56 59 60 55 54 43 49 25 28 358 4 352 345 340 337 326 316 304 285
225 162 130 295 198 242 254 228 220 132 132 119 101 79 52 49 102 136 149 150 110 102 106 90 83 93 78 73 65 72 66 69 67 71 61 46 33 34 17 13 7 358 356 354 355 340 333 340 334
183 210 207 179 193 211 331 280 339 118 137 127 139 123 37 104 131 154 145 137 148 158 150 126 99 96 78 64 73 84 76 74 78 80 75 51 42 33 28 16 7 5 9 8 0 345 359 351 337
218 218 198 157 215 224 66 271 108 121 106 95 101 119 55 343 5 138 175 175 188 201 174 157 135 114 91 100 111 113 111 107 98 87 75 55 46 30 27 15 9 17 18 18 5 7 348 342 339